Total_Precipitation_Accumulation
0.32 0.69 1.26 2.01 2.74 3.11 2.65 1.80 1.31 1.11 1.00 0.99 1.00 1.05 1.13 1.29 1.96 3.33 3.46 3.08 2.65 2.36 2.35 2.63 2.87 2.71 2.77 2.79 2.71 2.73 2.71 2.86 2.99 3.05 3.09 3.01 2.84 2.81 2.72 2.57 2.75 2.89 2.79 2.85 2.74 2.58 2.41 2.25 2.13
0.55 1.11 1.64 2.30 3.04 2.95 2.38 1.60 1.21 1.07 0.91 0.79 0.78 0.97 1.13 1.15 1.37 2.21 2.99 2.92 2.16 1.94 2.03 2.13 2.52 2.46 2.32 2.26 2.33 2.53 2.53 2.47 2.58 2.81 3.05 3.11 3.06 2.95 2.87 2.75 2.90 2.94 2.77 2.83 2.69 2.42 2.11 1.97 1.99
0.83 1.45 2.01 2.54 2.39 2.17 1.88 1.32 0.99 0.75 0.83 0.85 0.81 0.87 1.25 1.54 1.56 2.07 2.57 2.33 1.85 1.67 1.82 2.13 2.24 2.18 2.06 2.02 2.11 2.40 2.29 2.25 2.35 2.49 2.81 3.01 3.07 3.20 3.16 2.95 2.93 2.76 2.67 2.71 2.57 2.23 1.94 1.78 1.84
1.15 1.63 1.91 2.08 1.53 1.26 1.13 0.94 0.69 0.60 0.69 0.75 0.86 1.12 1.49 1.71 1.71 1.97 2.01 1.72 1.43 1.47 1.64 1.92 2.07 1.96 1.85 1.88 2.04 2.28 2.17 2.18 2.23 2.26 2.62 2.80 2.79 2.86 2.91 2.93 2.76 2.57 2.49 2.49 2.59 2.17 1.93 1.83 1.93
1.23 1.73 2.03 1.57 1.14 1.05 0.92 0.73 0.57 0.52 0.63 0.78 0.85 1.31 1.98 2.13 1.80 1.72 1.56 1.48 1.32 1.42 1.66 1.78 1.97 1.90 1.86 1.94 1.99 2.14 2.16 2.13 2.09 2.23 2.55 2.66 2.65 2.77 2.77 2.72 2.45 2.25 2.33 2.37 2.39 2.19 1.95 1.90 2.03
1.20 1.62 1.56 1.18 1.01 0.87 0.75 0.64 0.57 0.51 0.65 0.88 0.87 1.27 2.35 2.49 1.91 1.62 1.40 1.31 1.23 1.23 1.50 1.63 1.83 1.88 1.85 1.85 1.85 1.97 1.90 1.91 2.01 2.20 2.41 2.36 2.34 2.47 2.50 2.49 2.38 2.12 2.23 2.17 2.08 2.18 2.06 2.10 2.09
1.24 1.24 0.99 0.86 0.79 0.78 0.70 0.59 0.54 0.51 0.70 1.01 0.91 1.33 2.42 2.79 2.09 1.56 1.36 1.23 1.19 1.14 1.34 1.60 1.78 1.86 1.83 1.80 1.77 1.92 1.98 1.90 1.94 2.08 2.22 2.29 2.27 2.23 2.15 2.27 2.31 2.11 2.05 1.94 1.93 2.11 2.26 2.26 2.06
0.76 0.88 0.73 0.61 0.60 0.61 0.53 0.46 0.46 0.61 0.75 0.90 0.84 1.27 2.31 2.45 1.88 1.65 1.56 1.48 1.54 1.52 1.52 1.51 1.49 1.59 1.67 1.69 1.86 1.99 2.06 2.00 1.98 2.07 2.19 2.32 2.24 2.14 2.05 1.91 2.09 2.11 2.02 1.92 1.84 1.97 2.14 2.04 1.93
0.53 0.82 0.70 0.51 0.43 0.45 0.41 0.39 0.42 0.58 0.74 0.96 1.06 1.24 1.66 1.52 1.57 1.72 1.86 2.01 2.05 2.09 2.11 1.83 1.62 1.57 1.68 1.57 1.71 2.22 2.42 2.27 2.31 2.43 2.44 2.54 2.53 2.34 2.30 2.18 2.33 2.23 2.19 2.12 2.02 2.03 2.22 2.05 1.84
0.49 0.64 0.48 0.29 0.28 0.33 0.31 0.35 0.45 0.68 0.95 1.28 1.33 1.38 1.58 1.57 1.50 1.63 1.83 2.07 2.28 2.60 2.61 2.21 1.90 1.67 1.53 1.36 1.82 2.36 2.30 2.40 2.55 2.66 2.51 2.78 2.99 2.85 2.29 2.59 2.97 2.93 2.85 2.64 2.57 2.49 2.31 2.27 2.12
0.41 0.37 0.28 0.23 0.21 0.24 0.28 0.33 0.44 0.76 1.23 1.69 1.95 2.00 1.86 1.73 1.78 1.84 1.93 2.30 2.72 2.97 2.83 2.36 2.08 1.89 1.62 1.71 1.80 2.10 2.42 2.73 2.64 2.45 2.43 2.83 2.73 2.52 2.53 2.77 2.96 3.12 2.96 2.80 2.80 2.89 2.62 2.87 3.34
0.23 0.19 0.18 0.20 0.18 0.21 0.27 0.33 0.48 0.74 1.20 1.47 1.68 1.95 2.09 2.01 2.24 2.30 2.27 2.71 3.10 3.11 2.83 2.48 2.24 2.03 1.88 1.82 1.85 2.03 2.20 2.45 2.53 2.61 2.55 2.80 3.23 3.18 3.11 3.22 3.19 3.27 3.39 3.75 3.52 3.62 3.34 3.32 3.39
0.16 0.17 0.17 0.19 0.22 0.23 0.25 0.36 0.52 0.81 0.93 1.08 1.22 1.40 1.74 2.17 2.59 2.81 2.91 3.29 3.32 3.23 3.02 2.72 2.36 2.36 2.28 2.42 2.52 2.20 2.29 2.42 2.68 2.98 2.93 2.98 3.40 3.42 3.38 3.39 3.50 3.28 3.31 3.60 3.93 3.72 3.73 3.83 3.62
0.16 0.15 0.17 0.22 0.26 0.27 0.33 0.46 0.54 0.88 0.88 0.94 1.14 1.37 1.93 2.55 2.80 3.18 3.60 3.90 3.84 3.66 3.61 3.33 2.92 2.91 2.94 2.84 2.88 2.80 2.52 2.73 2.84 3.04 2.98 3.09 3.38 3.59 3.56 3.36 3.48 3.34 3.27 3.43 3.72 3.72 4.16 4.13 4.03
0.16 0.18 0.25 0.27 0.29 0.33 0.41 0.71 0.76 0.90 0.92 1.02 1.36 1.55 2.00 2.38 2.72 2.90 3.39 3.74 3.77 3.78 3.92 3.84 3.67 3.72 3.71 3.48 3.25 3.06 2.93 2.89 3.20 3.36 3.24 3.28 3.32 3.59 3.57 3.51 3.38 3.38 3.41 3.64 3.75 3.79 4.15 4.12 4.04
0.22 0.35 0.48 0.38 0.32 0.35 0.53 1.08 0.93 0.88 1.05 1.32 1.55 1.66 1.91 2.14 2.54 2.68 3.05 3.58 3.88 3.92 4.17 4.35 4.23 4.28 4.19 4.12 3.93 3.58 3.45 3.44 3.41 3.34 3.38 3.27 3.37 3.50 3.76 3.58 3.31 3.41 3.38 3.58 3.98 4.10 4.32 4.48 4.41
0.38 0.51 0.58 0.53 0.42 0.37 0.59 1.12 1.09 1.09 1.20 1.32 1.44 1.68 1.84 1.87 2.25 2.71 3.02 3.61 4.07 4.23 4.64 5.04 5.11 5.02 4.74 4.48 4.37 4.26 4.11 3.89 3.62 3.54 3.46 3.28 3.23 3.25 3.61 3.57 3.49 3.51 3.73 3.76 3.53 4.15 4.49 4.64 4.57
0.51 0.46 0.50 0.55 0.47 0.47 0.64 0.87 0.97 1.13 1.29 1.38 1.37 1.51 1.55 1.68 2.15 2.71 3.09 3.46 4.15 4.69 5.33 5.46 5.48 5.75 5.56 5.28 5.16 4.97 4.58 4.19 3.86 3.67 3.53 3.23 3.17 3.13 3.54 3.37 3.37 3.49 3.88 4.05 4.13 4.57 4.57 4.40 4.54
0.35 0.45 0.56 0.55 0.47 0.64 0.85 1.01 1.08 1.18 1.26 1.45 1.48 1.39 1.44 1.73 2.14 2.60 3.04 3.47 3.92 4.52 5.16 5.86 6.08 5.97 5.81 5.58 5.17 4.84 4.44 4.19 3.84 3.47 3.24 3.17 3.14 3.29 3.84 3.48 3.80 3.70 3.80 3.89 4.04 4.35 4.36 4.11 4.35
0.27 0.45 0.58 0.58 0.49 0.61 0.90 1.18 1.28 1.22 1.20 1.26 1.40 1.51 1.53 1.80 2.13 2.58 3.10 3.38 3.57 3.91 4.41 4.92 5.28 5.00 4.68 4.54 4.51 4.44 4.39 3.92 3.72 3.60 3.67 3.34 3.34 3.38 3.47 3.75 3.66 3.71 3.89 3.68 3.75 4.14 4.06 3.62 3.97
0.27 0.39 0.46 0.48 0.51 0.66 1.00 1.50 1.49 1.20 1.09 1.12 1.22 1.49 1.70 1.76 2.04 2.37 2.83 3.07 3.19 3.35 3.51 3.71 3.99 4.08 4.14 4.26 4.42 4.59 4.75 4.39 4.19 4.09 3.98 3.50 3.41 3.40 3.52 3.50 3.47 3.62 3.56 3.58 3.59 3.77 3.93 3.82 3.74
0.33 0.27 0.28 0.34 0.58 0.97 1.08 1.80 1.72 1.36 1.29 1.22 1.22 1.34 1.45 1.62 1.72 1.85 2.17 2.61 2.61 2.71 2.94 3.46 3.72 3.86 4.12 4.47 4.54 4.53 4.47 4.42 4.36 4.40 4.31 4.12 3.86 3.63 3.45 3.32 3.29 3.30 3.16 3.32 3.10 3.41 3.68 3.89 3.58
0.25 0.22 0.25 0.35 0.58 0.84 0.87 1.30 1.49 1.49 1.41 1.22 1.14 1.24 1.32 1.40 1.49 1.60 1.82 2.24 2.30 2.27 2.60 3.20 3.79 4.07 4.31 4.57 4.62 4.88 4.70 4.55 4.38 4.40 4.46 4.25 3.94 3.59 3.23 3.26 3.28 3.27 3.08 2.98 2.95 3.25 3.23 3.35 3.39
0.18 0.27 0.42 0.54 0.80 1.26 0.94 1.04 1.47 1.45 1.25 1.14 0.99 1.01 1.12 1.09 1.14 1.34 1.67 2.12 2.30 2.40 2.70 3.16 3.70 4.15 4.35 4.41 4.43 4.55 4.56 4.55 4.30 4.15 3.83 3.44 3.30 3.17 2.92 2.95 3.04 2.96 2.93 2.96 2.92 2.98 3.00 3.10 3.18
0.21 0.43 1.01 1.42 1.67 1.65 0.91 0.95 1.31 1.12 1.03 0.97 1.00 0.98 0.90 0.92 1.00 1.06 1.22 1.34 1.50 1.71 2.00 2.37 2.88 3.28 3.52 3.62 3.66 3.65 3.86 3.91 3.61 3.28 3.05 2.81 2.61 2.47 2.43 2.57 2.70 2.59 2.64 2.68 2.88 2.80 2.72 2.88 3.08
0.22 0.32 0.72 1.11 1.26 1.22 1.01 1.37 1.36 0.97 0.83 0.83 0.88 0.84 0.70 0.66 0.66 0.70 0.81 0.86 1.12 1.44 1.89 2.19 2.34 2.54 2.78 2.89 2.93 2.96 3.02 2.98 2.81 2.85 2.56 2.37 2.24 2.13 2.22 2.34 2.40 2.35 2.38 2.32 2.71 2.54 2.49 2.64 2.72
0.18 0.22 0.31 0.43 0.56 0.94 1.20 1.54 1.44 1.07 0.96 0.88 0.73 0.64 0.59 0.51 0.50 0.55 0.58 0.68 0.94 1.25 1.62 1.83 1.95 2.26 2.56 2.69 2.61 2.54 2.40 2.44 2.56 2.50 2.28 2.19 2.25 2.13 2.22 2.17 2.27 2.32 2.37 2.43 2.58 2.44 2.41 2.66 2.61
0.17 0.24 0.31 0.38 0.66 1.08 1.26 1.57 1.68 1.38 1.20 0.94 0.84 0.86 0.67 0.57 0.50 0.57 0.64 0.73 0.89 1.04 1.38 1.59 1.79 2.15 2.37 2.42 2.36 2.23 2.27 2.24 2.34 2.26 2.20 2.17 2.20 2.26 2.28 2.24 2.38 2.34 2.31 2.34 2.42 2.19 2.22 2.48 2.54
0.21 0.23 0.27 0.34 0.44 0.80 1.29 1.51 1.32 1.18 1.07 0.86 0.81 0.82 0.79 0.77 0.56 0.52 0.67 0.77 0.88 1.06 1.32 1.60 1.90 2.10 2.24 2.15 2.12 2.18 2.16 2.13 2.19 2.14 2.11 2.15 2.27 2.30 2.24 2.19 2.29 2.31 2.27 2.33 2.40 2.16 2.29 2.41 2.44
0.21 0.22 0.25 0.37 0.40 0.43 0.80 1.19 0.93 0.83 0.87 0.83 0.79 0.85 0.84 0.79 0.70 0.69 0.81 0.86 0.93 1.09 1.26 1.56 1.94 2.19 2.26 2.15 2.27 2.41 2.44 2.44 2.38 2.16 2.05 2.13 2.20 2.24 2.31 2.31 2.30 2.22 2.26 2.48 2.54 2.32 2.40 2.49 2.45